Flag for New Zealand Weather past 2 weeks in Auckland, New Zealand

Now
68 °F

Passing clouds.


Feels Like: 68 °F
Forecast: 64 / 71 °F
Wind: 17 mph from Northeast

Location: Auckland Airport


UV Index: 0 (Low)

Visibility: N/A


Pressure: 29.65 "Hg

Humidity: 83%

Dew point: 63 °F

Location of AucklandLocation

Historic Weather in Auckland

°F

Auckland temperature yesterday

Maximum temperature yesterday: 75 °F (at 2:00 PM)
Minimum temperature yesterday: 63 °F (at 12:00 AM)
Average temperature yesterday: 68 °F

Past Weeks' High & Low Weather Summary

 TemperatureHumidityPressure
High75 °F (Apr 10, 3:00 PM)100% (Apr 3, 2:00 AM)30.27 "Hg (Apr 3, 2:00 AM)
Low52 °F (Apr 13, 5:30 AM)53% (Apr 13, 12:00 PM)29.36 "Hg (Apr 17, 10:30 AM)
Average66 °F84%29.97 "Hg
* Reported Apr 3 1:00 AM — Midnight between Apr 17 and Apr 18, Auckland, Weather by CustomWeather, © 2014

Note: Actual official high and low records may vary slightly from our data, if they occured in-between our weather recording intervals... More about our weather records

Advertising

Historic Weather Conditions — Data for Previous 24 hours

 ConditionsComfort  
Time TempWeatherWind HumidityBarometerVisibility
12:00 AM
Apr 18
68 °FPassing clouds.18 mph88%29.62 "HgN/A
11:30 PM
Apr 17
68 °FPassing clouds.18 mph88%29.62 "HgN/A
11:00 PM68 °FPassing clouds.17 mph88%29.62 "HgN/A
10:30 PM68 °FPassing clouds.18 mph88%29.62 "HgN/A
10:00 PM68 °FPassing clouds.18 mph83%29.62 "HgN/A
9:30 PM68 °FPassing clouds.17 mph83%29.59 "HgN/A
9:00 PM68 °FPassing clouds.18 mph83%29.59 "HgN/A
8:30 PM68 °FMild.21 mph83%29.56 "HgN/A
8:00 PM68 °FPassing clouds.21 mph83%29.56 "HgN/A
7:30 PM68 °FMostly cloudy.20 mph88%29.56 "HgN/A
7:00 PM68 °FMostly cloudy.20 mph83%29.53 "HgN/A
6:30 PM68 °FOvercast.21 mph83%29.50 "HgN/A
6:00 PM68 °FPassing clouds.21 mph83%29.50 "HgN/A
5:30 PM70 °FPassing clouds.21 mph78%29.47 "HgN/A
5:00 PM70 °FPassing clouds.23 mph78%29.47 "HgN/A
4:30 PM72 °FPassing clouds.22 mph73%29.47 "HgN/A
4:00 PM72 °FPartly sunny.22 mph73%29.45 "HgN/A
3:30 PM72 °FPartly sunny.24 mph73%29.45 "HgN/A
3:00 PM72 °FBroken clouds.21 mph78%29.45 "HgN/A
2:30 PM72 °FPartly sunny.20 mph73%29.45 "HgN/A
2:00 PM75 °FPartly sunny.18 mph69%29.42 "HgN/A
1:30 PM73 °FPartly sunny.22 mph78%29.42 "HgN/A
1:00 PM72 °FMore clouds than sun.21 mph83%29.42 "HgN/A
12:30 PM72 °FMostly cloudy.25 mph83%29.39 "HgN/A
12:00 PM70 °FLight rain. Partly sunny.30 mph94%29.39 "Hg5 mi
11:30 AM68 °FLight rain. Fog.33 mph100%29.39 "Hg2 mi
11:00 AM68 °FLight rain. Mostly cloudy.36 mph100%29.39 "Hg1 mi
10:30 AM68 °FLight rain. Partly sunny.28 mph100%29.36 "Hg2 mi
10:00 AM68 °FRain showers. Partly sunny.30 mph100%29.39 "Hg1 mi
9:30 AM68 °FRain showers. Mostly cloudy.33 mph94%29.39 "Hg2 mi
9:00 AM66 °FRain showers. Partly sunny.33 mph100%29.39 "Hg2 mi
8:30 AM66 °FLots of rain. Mostly cloudy.35 mph100%29.42 "Hg1 mi
8:00 AM66 °FSprinkles. Partly sunny.33 mph100%29.42 "Hg3 mi
7:30 AM66 °FDrizzle. Partly sunny.35 mph94%29.45 "Hg2 mi
7:00 AM66 °FSprinkles. Partly sunny.31 mph94%29.45 "Hg2 mi
6:30 AM66 °FHeavy rain. Mostly cloudy.31 mph94%29.50 "Hg2 mi
6:00 AM66 °FLight rain. Partly sunny.29 mph94%29.50 "Hg4 mi
5:30 AM64 °FRain. Overcast.24 mph100%29.53 "Hg2 mi
5:00 AM64 °FRain. Mostly cloudy.25 mph100%29.56 "Hg2 mi
4:30 AM64 °FLight rain. Overcast.25 mph100%29.56 "Hg5 mi
4:00 AM64 °FHeavy rain. Partly cloudy.21 mph100%29.59 "Hg2 mi
3:30 AM64 °FRain. Passing clouds.21 mph100%29.59 "Hg3 mi
3:00 AM63 °FLots of rain. Mostly cloudy.17 mph100%29.62 "Hg2 mi
2:30 AM63 °FRain showers. Overcast.20 mph100%29.65 "Hg3 mi
2:00 AM63 °FRain showers. Passing clouds.14 mph100%29.68 "Hg3 mi
1:00 AM63 °FRain. Partly cloudy.17 mph94%29.71 "Hg5 mi
Weather by CustomWeather, © 2014

See weather overview